Regional Weather Roundup
Issued by NWS

Home | Current Version | Previous Version | Graphics & Text | Print | Product List | Glossary On
Versions: 1 2 3 4 5 6 7 8 9 10 11 12 13 14 15 16 17 18 19 20 21 22 23 24 25 26 27 28 29 30 31 32 33 34 35 36 37 38 39 40 41 42 43 44 45 46 47 48 49 50
000
ASUS43 KLMK 211410
RWRKY
KENTUCKY REGIONAL WEATHER ROUNDUP
NATIONAL WEATHER SERVICE LOUISVILLE KY
1000 AM EDT TUE APR 21 2015

NOTE "FAIR" INDICATES FEW OR NO CLOUDS BELOW 12,000 FEET
WITH NO SIGNIFICANT WEATHER AND/OR OBSTRUCTIONS TO VISIBILITY.

KYZ001>023-026-027-061>063-070>075-211500-
WESTERN AND SOUTH CENTRAL KENTUCKY

CITY           SKY/WX    TMP DP  RH WIND       PRES   REMARKS
PADUCAH        SUNNY     56  39  53 SW14      29.93S
HENDERSON      SUNNY     55  37  50 SW17G23   29.89S
OWENSBORO      SUNNY     56  39  52 W17       29.90F
HOPKINSVILLE   SUNNY     55  40  55 SW12      29.96S
BOWLING GREEN  SUNNY     55  38  52 SW14      29.95S
GLASGOW        SUNNY     55  39  54 SW14      29.95S
$$

KYZ024-025-028>034-038-045-046-053-211500-
NORTH CENTRAL KENTUCKY

CITY           SKY/WX    TMP DP  RH WIND       PRES   REMARKS
LOUISVILLE/SDF MOSUNNY   56  34  43 SW15G22   29.87S
LOUISVILLE/LOU SUNNY     54  34  46 SW13      29.88S
FORT KNOX      SUNNY     54  36  50 SW16G23   29.88R
$$

KYZ035>037-039>044-047>052-055>060-089>105-211500-
NORTHEAST KENTUCKY

CITY           SKY/WX    TMP DP  RH WIND       PRES   REMARKS
LEXINGTON      SUNNY     53  36  52 SW15      29.88S
COVINGTON      SUNNY     52  33  48 SW15G24   29.81S
FRANKFORT      SUNNY     53  34  48 SW13      29.86F
$$

KYZ054-064>069-076>088-106>120-211500-
SOUTHEAST KENTUCKY

CITY           SKY/WX    TMP DP  RH WIND       PRES   REMARKS
JACKSON        SUNNY     54  35  48 VRB3      29.92R
LONDON         SUNNY     55  32  41 W12G23    29.95R
SOMERSET       SUNNY     52  37  58 W10       29.97R
MIDDLESBORO    SUNNY     55  35  46 W7        29.97R
MONTICELLO     SUNNY     56  38  50 SW12G17   29.99R
$$




USA.gov is the U.S. government's official web portal to all federal, state and local government web resources and services.